This demonstration page uses our WeatherBlox Daily Observations layout. Learn more.

38.88101, -77.10428

Hourly Observations for October 9, 2020

Temp ( °F °C ) Dew Point ( °F °C ) Humidity (%) Winds ( mph kmh ) Pressure ( in mb ) Visibility ( mi km ) Precip ( " mm )
12:52 am 00:52 Clear 57 13.9 46 7.8 67 67 NNE 3 6 30.21 1023 10 16.0934 0 0
1:52 am 01:52 Clear 56 13.3 47 8.3 72 72 Calm 30.21 1023 10 16.0934 0 0
2:52 am 02:52 Clear 54 12.2 45 7.2 72 72 Calm 30.21 1023 10 16.0934 0 0
3:52 am 03:52 Clear 54 12.2 45 7.2 72 72 Calm 30.21 1023 10 16.0934 0 0
4:52 am 04:52 Clear 50 10 45 7.2 83 83 SSW 6 9 30.21 1023 10 16.0934 0 0
5:52 am 05:52 Clear 52 11.1 44 6.7 75 75 SW 3 6 30.23 1024 10 16.0934 0 0
6:52 am 06:52 Mostly Clear 51 10.6 45 7.2 80 80 SW 3 6 30.24 1024 10 16.0934 0 0
7:52 am 07:52 Sunny 52 11.1 44 6.7 75 75 Calm 30.26 1025 10 16.0934 0 0
8:52 am 08:52 Partly Cloudy 56 13.3 48 8.9 75 75 SSW 3 6 30.27 1025 10 16.0934 0 0
9:52 am 09:52 Partly Cloudy 60 15.6 49 9.4 67 67 S 6 9 30.28 1025 10 16.0934 0 0
10:52 am 10:52 Partly Cloudy 63 17.2 50 10 63 63 S 9 15 30.27 1025 10 16.0934 0 0
11:52 am 11:52 Partly Cloudy 69 20.6 46 7.8 44 44 SSW 12 19 30.27 1025 10 16.0934 0 0
12:52 pm 12:52 Partly Cloudy 70 21.1 46 7.8 42 42 S 12 19 30.26 1025 10 16.0934 0 0
1:52 pm 13:52 Mostly Cloudy 70 21.1 43 6.1 38 38 S 10 17 30.23 1024 10 16.0934 0 0
2:52 pm 14:52 Mostly Cloudy 70 21.1 47 8.3 44 44 S 14 22 30.2 1023 10 16.0934 0 0
3:52 pm 15:52 Mostly Cloudy 69 20.6 46 7.8 44 44 S 10 17 30.19 1022 10 16.0934 0 0
4:52 pm 16:52 Mostly Cloudy 69 20.6 47 8.3 45 45 S 13 20 30.19 1022 10 16.0934 0 0
5:52 pm 17:52 Mostly Cloudy 67 19.4 48 8.9 51 51 S 12 19 30.18 1022 10 16.0934 0 0
6:52 pm 18:52 Cloudy 64 17.8 51 10.6 63 63 S 8 13 30.17 1022 10 16.0934 0 0
7:52 pm 19:52 Cloudy 62 16.7 52 11.1 70 70 SSW 6 9 30.18 1022 10 16.0934 0 0
8:52 pm 20:52 Cloudy 61 16.1 51 10.6 70 70 S 7 11 30.18 1022 10 16.0934 0 0
9:52 pm 21:52 Cloudy 60 15.6 52 11.1 75 75 SSW 7 11 30.17 1022 10 16.0934 0 0
10:52 pm 22:52 Cloudy 61 16.1 53 11.7 75 75 SSW 7 11 30.16 1021 10 16.0934 0 0
11:52 pm 23:52 Cloudy 60 15.6 53 11.7 78 78 S 9 15 30.15 1021 10 16.0934 0 0

Powered by AerisWeather